| time (UTC) | temp F | wind direction | speed knots | gust knots | rain 1hr in | rain 24hr in | rain mn in | humidity % | barometer mb |
| 20260505170234 | 69 | 117 | 3.5 | 5.2 | 0.00 | 0.00 | 0.05 | 90 | 1004.4 |
| 20260505165734 | 69 | 85 | 3.5 | 7.0 | 0.00 | 0.00 | 0.05 | 90 | 1004.5 |
| 20260505165235 | 69 | 112 | 3.5 | 7.8 | 0.00 | 0.00 | 0.05 | 90 | 1004.3 |
| 20260505164734 | 69 | 88 | 4.3 | 7.8 | 0.00 | 0.00 | 0.05 | 91 | 1004.3 |
| 20260505164234 | 68 | 148 | 2.6 | 7.8 | 0.00 | 0.00 | 0.05 | 91 | 1004.3 |
| 20260505163735 | 68 | 101 | 5.2 | 7.8 | 0.00 | 0.00 | 0.05 | 92 | 1004.3 |
| 20260505163235 | 68 | 98 | 3.5 | 7.8 | 0.00 | 0.00 | 0.05 | 93 | 1004.3 |
| 20260505162746 | 67 | 109 | 6.1 | 7.8 | 0.00 | 0.00 | 0.05 | 93 | 1004.4 |
| 20260505162234 | 66 | 128 | 3.5 | 7.8 | 0.00 | 0.00 | 0.05 | 93 | 1004.4 |
| 20260505161735 | 66 | 115 | 3.5 | 7.8 | 0.00 | 0.00 | 0.05 | 93 | 1004.3 |
| 20260505161233 | 66 | 113 | 7.8 | 7.8 | 0.00 | 0.00 | 0.05 | 93 | 1004.4 |
| 20260505160733 | 66 | 140 | 6.1 | 9.6 | 0.00 | 0.00 | 0.05 | 94 | 1004.4 |
| 20260505160233 | 65 | 126 | 6.1 | 10.4 | 0.00 | 0.00 | 0.05 | 94 | 1004.3 |
| 20260505153234 | 64 | 93 | 3.5 | 10.4 | 0.00 | 0.00 | 0.05 | 94 | 1004.4 |
| 20260505152733 | 63 | 86 | 2.6 | 10.4 | 0.00 | 0.00 | 0.05 | 94 | 1004.7 |
| 20260505152234 | 63 | 71 | 5.2 | 10.4 | 0.00 | 0.00 | 0.05 | 94 | 1004.9 |
| 20260505151732 | 63 | 67 | 7.0 | 8.7 | 0.00 | 0.00 | 0.05 | 94 | 1004.9 |
| 20260505151232 | 63 | 96 | 6.1 | 9.6 | 0.00 | 0.00 | 0.05 | 94 | 1005.0 |
| 20260505150735 | 63 | 84 | 3.5 | 10.4 | 0.00 | 0.00 | 0.05 | 94 | 1004.9 |
| 20260505150232 | 63 | 61 | 4.3 | 10.4 | 0.00 | 0.00 | 0.05 | 94 | 1004.9 |
| 20260505140232 | 62 | 75 | 7.0 | 10.4 | 0.00 | 0.00 | 0.05 | 94 | 1005.5 |
| 20260505130229 | 62 | 86 | 4.3 | 12.2 | 0.00 | 0.00 | 0.05 | 93 | 1005.2 |
| 20260505124728 | 62 | 116 | 10.4 | 11.3 | 0.00 | 0.00 | 0.05 | 92 | 1005.1 |
| 20260505124229 | 62 | 86 | 7.0 | 10.4 | 0.00 | 0.00 | 0.05 | 92 | 1005.1 |
| 20260505123730 | 62 | 77 | 7.0 | 10.4 | 0.00 | 0.00 | 0.04 | 92 | 1005.2 |
| 20260505123230 | 62 | 78 | 7.0 | 10.4 | 0.00 | 0.00 | 0.04 | 92 | 1005.1 |
| 20260505122729 | 62 | 91 | 7.0 | 10.4 | 0.00 | 0.00 | 0.04 | 91 | 1005.1 |
| 20260505122228 | 62 | 71 | 5.2 | 10.4 | 0.00 | 0.00 | 0.04 | 91 | 1005.0 |
| 20260505121730 | 62 | 100 | 5.2 | 9.6 | 0.00 | 0.00 | 0.04 | 91 | 1004.9 |
| 20260505121228 | 62 | 88 | 4.3 | 9.6 | 0.00 | 0.00 | 0.03 | 90 | 1004.9 |
| 20260505120727 | 63 | 67 | 9.6 | 8.7 | 0.00 | 0.00 | 0.03 | 90 | 1004.7 |
| 20260505120226 | 63 | 73 | 7.0 | 10.4 | 0.00 | 0.00 | 0.03 | 89 | 1004.5 |
| 20260505115730 | 63 | 71 | 3.5 | 11.3 | 0.00 | 0.00 | 0.03 | 89 | 1004.5 |
| 20260505115227 | 63 | 82 | 3.5 | 11.3 | 0.00 | 0.00 | 0.03 | 88 | 1004.5 |
| 20260505114727 | 63 | 69 | 5.2 | 9.6 | 0.00 | 0.00 | 0.03 | 88 | 1004.4 |
| 20260505114228 | 63 | 76 | 4.3 | 9.6 | 0.00 | 0.00 | 0.03 | 88 | 1004.4 |
| 20260505113728 | 63 | 59 | 9.6 | 9.6 | 0.00 | 0.00 | 0.03 | 88 | 1004.3 |
| 20260505113226 | 63 | 59 | 4.3 | 8.7 | 0.00 | 0.00 | 0.03 | 87 | 1004.2 |
| 20260505112726 | 63 | 85 | 7.0 | 8.7 | 0.00 | 0.00 | 0.03 | 87 | 1004.2 |
| 20260505112226 | 63 | 63 | 7.0 | 8.7 | 0.00 | 0.00 | 0.03 | 87 | 1004.1 |
| 20260505111728 | 63 | 74 | 4.3 | 9.6 | 0.00 | 0.00 | 0.03 | 87 | 1004.1 |
| 20260505111226 | 63 | 63 | 5.2 | 9.6 | 0.00 | 0.00 | 0.03 | 87 | 1004.0 |
| 20260505110726 | 63 | 49 | 4.3 | 10.4 | 0.00 | 0.00 | 0.03 | 87 | 1004.0 |
| 20260505110225 | 63 | 80 | 3.5 | 10.4 | 0.00 | 0.00 | 0.03 | 87 | 1004.0 |
| 20260505101726 | 63 | 63 | 7.0 | 10.4 | 0.00 | 0.00 | 0.03 | 85 | 1003.7 |
| 20260505101224 | 63 | 68 | 5.2 | 8.7 | 0.00 | 0.00 | 0.03 | 85 | 1003.7 |
| 20260505100727 | 63 | 90 | 6.1 | 8.7 | 0.00 | 0.00 | 0.03 | 85 | 1003.8 |
| 20260505100226 | 63 | 73 | 3.5 | 8.7 | 0.00 | 0.00 | 0.03 | 85 | 1003.8 |
| 20260505095726 | 63 | 64 | 3.5 | 8.7 | 0.00 | 0.00 | 0.03 | 85 | 1003.9 |
| 20260505095223 | 63 | 65 | 5.2 | 9.6 | 0.00 | 0.00 | 0.03 | 85 | 1003.9 |
| 20260505094724 | 63 | 52 | 5.2 | 9.6 | 0.00 | 0.00 | 0.03 | 86 | 1003.9 |
| 20260505094226 | 62 | 82 | 4.3 | 9.6 | 0.00 | 0.00 | 0.03 | 87 | 1004.1 |
| 20260505093724 | 62 | 53 | 5.2 | 9.6 | 0.00 | 0.00 | 0.03 | 87 | 1004.0 |
| 20260505093223 | 62 | 67 | 8.7 | 9.6 | 0.00 | 0.00 | 0.03 | 87 | 1004.1 |
| 20260505092724 | 62 | 43 | 5.2 | 9.6 | 0.00 | 0.00 | 0.03 | 88 | 1004.1 |
| 20260505092223 | 62 | 49 | 7.8 | 9.6 | 0.00 | 0.00 | 0.03 | 89 | 1004.2 |
| 20260505091726 | 62 | 9 | 6.1 | 9.6 | 0.00 | 0.00 | 0.03 | 89 | 1004.4 |
| 20260505091223 | 62 | 13 | 3.5 | 7.8 | 0.00 | 0.00 | 0.03 | 89 | 1004.2 |
| 20260505090724 | 61 | 24 | 5.2 | 7.8 | 0.00 | 0.00 | 0.03 | 89 | 1004.0 |
| 20260505090224 | 62 | 24 | 4.3 | 7.0 | 0.00 | 0.00 | 0.03 | 88 | 1003.8 |
| 20260505085722 | 62 | 42 | 2.6 | 7.8 | 0.00 | 0.00 | 0.03 | 88 | 1003.7 |
| 20260505085222 | 62 | 55 | 4.3 | 7.8 | 0.00 | 0.00 | 0.03 | 88 | 1003.5 |
| 20260505084721 | 62 | 39 | 4.3 | 7.0 | 0.00 | 0.00 | 0.03 | 87 | 1003.4 |
| 20260505084222 | 62 | 46 | 3.5 | 7.0 | 0.00 | 0.00 | 0.03 | 87 | 1003.4 |
| 20260505083722 | 62 | 74 | 3.5 | 7.0 | 0.00 | 0.00 | 0.03 | 86 | 1003.3 |
| 20260505083223 | 62 | 69 | 2.6 | 7.0 | 0.00 | 0.00 | 0.03 | 86 | 1003.3 |
| 20260505082722 | 62 | 87 | 3.5 | 5.2 | 0.00 | 0.00 | 0.03 | 86 | 1002.7 |
| 20260505082222 | 62 | 84 | 0.9 | 7.0 | 0.00 | 0.00 | 0.03 | 86 | 1002.8 |
| 20260505081722 | 63 | 80 | 2.6 | 7.0 | 0.00 | 0.00 | 0.03 | 85 | 1002.7 |
| 20260505081223 | 63 | 87 | 4.3 | 8.7 | 0.00 | 0.00 | 0.03 | 84 | 1002.7 |
| 20260505080723 | 63 | 74 | 3.5 | 8.7 | 0.00 | 0.00 | 0.03 | 84 | 1002.7 |
| 20260505080223 | 63 | 69 | 7.0 | 8.7 | 0.00 | 0.00 | 0.03 | 83 | 1002.8 |
| 20260505075723 | 63 | 78 | 4.3 | 8.7 | 0.00 | 0.00 | 0.03 | 83 | 1003.0 |
| 20260505075221 | 63 | 80 | 7.0 | 8.7 | 0.00 | 0.00 | 0.02 | 82 | 1003.1 |
| 20260505074719 | 63 | 66 | 4.3 | 8.7 | 0.00 | 0.00 | 0.02 | 82 | 1003.1 |
| 20260505074221 | 63 | 91 | 6.1 | 7.8 | 0.00 | 0.00 | 0.02 | 82 | 1003.4 |
| 20260505073720 | 63 | 75 | 4.3 | 7.8 | 0.00 | 0.00 | 0.02 | 82 | 1003.6 |
| 20260505073221 | 63 | 65 | 5.2 | 7.8 | 0.00 | 0.00 | 0.02 | 82 | 1003.5 |
| 20260505072722 | 63 | 121 | 4.3 | 7.8 | 0.00 | 0.00 | 0.02 | 83 | 1003.8 |
| 20260505072222 | 63 | 74 | 7.0 | 7.8 | 0.00 | 0.00 | 0.02 | 83 | 1003.9 |
| 20260505071721 | 63 | 61 | 5.2 | 7.8 | 0.00 | 0.00 | 0.02 | 83 | 1004.3 |
| 20260505071222 | 63 | 55 | 5.2 | 6.1 | 0.00 | 0.00 | 0.02 | 84 | 1004.5 |
| 20260505070722 | 63 | 74 | 2.6 | 7.8 | 0.00 | 0.00 | 0.02 | 84 | 1004.2 |
| 20260505070220 | 63 | 109 | 2.6 | 7.8 | 0.00 | 0.00 | 0.02 | 84 | 1004.0 |
| 20260505065721 | 63 | 76 | 2.6 | 7.8 | 0.00 | 0.00 | 0.02 | 84 | 1004.2 |
| 20260505065221 | 63 | 56 | 4.3 | 7.8 | 0.00 | 0.00 | 0.02 | 84 | 1004.4 |
| 20260505064720 | 63 | 72 | 2.6 | 5.2 | 0.00 | 0.00 | 0.02 | 84 | 1004.5 |
| 20260505064219 | 63 | 100 | 3.5 | 3.5 | 0.00 | 0.00 | 0.02 | 83 | 1004.6 |
| 20260505063719 | 63 | 0 | 0.0 | 4.3 | 0.00 | 0.00 | 0.02 | 82 | 1004.9 |
| 20260505063221 | 64 | 77 | 2.6 | 4.3 | 0.00 | 0.00 | 0.02 | 81 | 1004.7 |
| 20260505062720 | 64 | 59 | 4.3 | 4.3 | 0.00 | 0.00 | 0.00 | 79 | 1005.0 |
| 20260505062223 | 64 | 352 | 2.6 | 6.1 | 0.00 | 0.00 | 0.00 | 77 | 1005.5 |
| 20260505061721 | 64 | 53 | 2.6 | 7.8 | 0.00 | 0.00 | 0.00 | 78 | 1005.1 |
| 20260505061219 | 64 | 88 | 3.5 | 9.6 | 0.00 | 0.00 | 0.00 | 77 | 1004.9 |
| 20260505060719 | 64 | 94 | 5.2 | 9.6 | 0.00 | 0.00 | 0.00 | 77 | 1004.7 |
| 20260505060218 | 64 | 118 | 7.0 | 12.2 | 0.00 | 0.00 | 0.00 | 77 | 1004.6 |
| 20260505055719 | 65 | 118 | 6.1 | 12.2 | 0.00 | 0.00 | 0.00 | 77 | 1004.6 |
| 20260505055218 | 65 | 118 | 6.1 | 12.2 | 0.00 | 0.00 | 0.00 | 77 | 1004.5 |
| 20260505054717 | 65 | 119 | 7.8 | 9.6 | 0.00 | 0.00 | 0.00 | 76 | 1004.9 |
| 20260505054217 | 65 | 124 | 3.5 | 7.0 | 0.00 | 0.00 | 0.00 | 76 | 1005.4 |
| 20260505053718 | 65 | 134 | 2.6 | 4.3 | 0.00 | 0.00 | 0.00 | 76 | 1006.0 |
| 20260505053217 | 65 | 77 | 1.7 | 3.5 | 0.00 | 0.00 | 0.00 | 75 | 1006.3 |
| 20260505052718 | 65 | 93 | 0.9 | 3.5 | 0.00 | 0.00 | 0.00 | 76 | 1006.3 |
| 20260505052217 | 65 | 100 | 2.6 | 3.5 | 0.00 | 0.00 | 0.00 | 76 | 1006.4 |
| 20260505051719 | 65 | 28 | 1.7 | 3.5 | 0.00 | 0.00 | 0.00 | 75 | 1006.7 |
| 20260505051219 | 65 | 32 | 1.7 | 4.3 | 0.00 | 0.00 | 0.00 | 75 | 1006.5 |
| 20260505050719 | 65 | 56 | 3.5 | 4.3 | 0.00 | 0.00 | 0.00 | 75 | 1006.1 |
| 20260505050217 | 65 | 68 | 2.6 | 4.3 | 0.00 | 0.00 | 0.00 | 75 | 1005.7 |
| 20260505041718 | 66 | 97 | 0.9 | 2.6 | 0.00 | 0.00 | 0.00 | 74 | 1006.1 |
| 20260505041315 | 66 | 0 | 0.0 | 3.5 | 0.00 | 0.00 | 0.00 | 73 | 1006.2 |
| 20260505040917 | 66 | 104 | 0.9 | 3.5 | 0.00 | 0.00 | 0.00 | 73 | 1006.1 |
| 20260505040417 | 66 | 103 | 0.9 | 3.5 | 0.00 | 0.00 | 0.00 | 73 | 1006.2 |
| 20260505035918 | 66 | 111 | 1.7 | 3.5 | 0.00 | 0.00 | 0.00 | 72 | 1006.1 |
| 20260505035418 | 66 | 101 | 2.6 | 2.6 | 0.00 | 0.00 | 0.00 | 72 | 1006.3 |
| 20260505034916 | 66 | 111 | 1.7 | 2.6 | 0.00 | 0.00 | 0.00 | 71 | 1006.3 |
| 20260505034418 | 67 | 119 | 0.9 | 1.7 | 0.00 | 0.00 | 0.00 | 71 | 1006.4 |
| 20260505033916 | 67 | 119 | 0.9 | 1.7 | 0.00 | 0.00 | 0.00 | 71 | 1006.4 |
| 20260505033418 | 67 | 120 | 0.9 | 2.6 | 0.00 | 0.00 | 0.00 | 70 | 1006.4 |
| 20260505032915 | 67 | 0 | 0.0 | 2.6 | 0.00 | 0.00 | 0.00 | 70 | 1006.5 |
| 20260505032419 | 67 | 131 | 1.7 | 3.5 | 0.00 | 0.00 | 0.00 | 70 | 1006.5 |
| 20260505031917 | 67 | 128 | 1.7 | 4.3 | 0.00 | 0.00 | 0.00 | 70 | 1006.4 |
| 20260505031416 | 68 | 130 | 1.7 | 4.3 | 0.00 | 0.00 | 0.00 | 70 | 1006.4 |
| 20260505030915 | 68 | 131 | 2.6 | 5.2 | 0.00 | 0.00 | 0.00 | 69 | 1006.5 |
| 20260505030415 | 68 | 126 | 1.7 | 5.2 | 0.00 | 0.00 | 0.00 | 69 | 1006.5 |
| 20260505025937 | 68 | 147 | 3.5 | 4.3 | 0.00 | 0.00 | 0.00 | 69 | 1006.5 |
| 20260505025439 | 68 | 140 | 2.6 | 4.3 | 0.00 | 0.00 | 0.00 | 69 | 1006.5 |
| 20260505024940 | 68 | 140 | 2.6 | 3.5 | 0.00 | 0.00 | 0.00 | 69 | 1006.6 |
| 20260505024415 | 68 | 145 | 1.7 | 4.3 | 0.00 | 0.00 | 0.00 | 69 | 1006.6 |
| 20260505023940 | 68 | 0 | 0.0 | 4.3 | 0.00 | 0.00 | 0.00 | 69 | 1006.5 |
| 20260505023436 | 68 | 132 | 2.6 | 4.3 | 0.00 | 0.00 | 0.00 | 68 | 1006.5 |
| 20260505022915 | 68 | 150 | 1.7 | 4.3 | 0.00 | 0.00 | 0.00 | 68 | 1006.5 |
| 20260505022415 | 69 | 148 | 1.7 | 4.3 | 0.00 | 0.00 | 0.00 | 68 | 1006.3 |
| 20260505021937 | 69 | 157 | 2.6 | 4.3 | 0.00 | 0.00 | 0.00 | 68 | 1006.2 |
| 20260505021438 | 69 | 177 | 1.7 | 4.3 | 0.00 | 0.00 | 0.00 | 68 | 1006.1 |
| 20260505020942 | 69 | 169 | 0.9 | 4.3 | 0.00 | 0.00 | 0.00 | 68 | 1006.1 |
| 20260505020437 | 69 | 145 | 1.7 | 3.5 | 0.00 | 0.00 | 0.00 | 68 | 1006.0 |
| 20260505015939 | 69 | 142 | 0.9 | 4.3 | 0.00 | 0.00 | 0.00 | 68 | 1006.0 |
| 20260505015442 | 69 | 158 | 0.9 | 4.3 | 0.00 | 0.00 | 0.00 | 67 | 1006.0 |
| 20260505014939 | 70 | 142 | 1.7 | 4.3 | 0.00 | 0.00 | 0.00 | 67 | 1005.8 |
| 20260505014439 | 70 | 135 | 0.9 | 4.3 | 0.00 | 0.00 | 0.00 | 67 | 1005.7 |
| 20260505013938 | 70 | 155 | 2.6 | 3.5 | 0.00 | 0.00 | 0.00 | 67 | 1005.6 |
| 20260505013436 | 70 | 163 | 1.7 | 3.5 | 0.00 | 0.00 | 0.00 | 66 | 1005.7 |
| 20260505012944 | 70 | 159 | 1.7 | 3.5 | 0.00 | 0.00 | 0.00 | 66 | 1005.5 |
| 20260505012444 | 71 | 123 | 0.9 | 4.3 | 0.00 | 0.00 | 0.00 | 65 | 1005.5 |
| 20260505011944 | 71 | 149 | 2.6 | 6.1 | 0.00 | 0.00 | 0.00 | 65 | 1005.4 |
| 20260505011439 | 71 | 132 | 2.6 | 7.0 | 0.00 | 0.00 | 0.00 | 64 | 1005.4 |
| 20260505010941 | 71 | 138 | 2.6 | 7.8 | 0.00 | 0.00 | 0.00 | 64 | 1005.5 |
| 20260505010443 | 71 | 142 | 3.5 | 9.6 | 0.00 | 0.00 | 0.00 | 63 | 1005.1 |
| 20260505005941 | 71 | 159 | 5.2 | 9.6 | 0.00 | 0.00 | 0.00 | 63 | 1005.2 |
| 20260505005437 | 72 | 152 | 2.6 | 6.1 | 0.00 | 0.00 | 0.00 | 63 | 1005.1 |
| 20260505004938 | 72 | 163 | 1.7 | 6.1 | 0.00 | 0.00 | 0.00 | 62 | 1005.2 |
| 20260505004439 | 72 | 136 | 1.7 | 7.0 | 0.00 | 0.00 | 0.00 | 62 | 1005.2 |
| 20260505003941 | 72 | 144 | 3.5 | 7.0 | 0.00 | 0.00 | 0.00 | 62 | 1005.1 |
| 20260505003439 | 73 | 158 | 2.6 | 7.8 | 0.00 | 0.00 | 0.00 | 61 | 1005.2 |
| 20260505002943 | 73 | 152 | 6.1 | 9.6 | 0.00 | 0.00 | 0.00 | 61 | 1005.3 |
| 20260505002441 | 73 | 140 | 3.5 | 9.6 | 0.00 | 0.00 | 0.00 | 61 | 1005.3 |
| 20260505001937 | 73 | 172 | 6.1 | 8.7 | 0.00 | 0.00 | 0.00 | 60 | 1005.4 |
| 20260505001442 | 73 | 144 | 5.2 | 9.6 | 0.00 | 0.00 | 0.00 | 59 | 1005.4 |
| 20260505000944 | 73 | 175 | 2.6 | 10.4 | 0.00 | 0.00 | 0.00 | 60 | 1005.4 |
| 20260505000439 | 74 | 163 | 6.1 | 10.4 | 0.00 | 0.00 | 0.00 | 59 | 1005.4 |
| 20260504235939 | 74 | 161 | 4.3 | 11.3 | 0.00 | 0.00 | 0.00 | 59 | 1005.5 |
| 20260504235442 | 74 | 170 | 6.1 | 11.3 | 0.00 | 0.00 | 0.00 | 59 | 1005.4 |
| 20260504234943 | 74 | 132 | 7.0 | 10.4 | 0.00 | 0.00 | 0.00 | 59 | 1005.4 |
| 20260504234441 | 74 | 146 | 7.0 | 12.2 | 0.00 | 0.00 | 0.00 | 59 | 1005.4 |
| 20260504233940 | 74 | 150 | 7.8 | 16.5 | 0.00 | 0.00 | 0.00 | 58 | 1005.5 |
| 20260504233438 | 74 | 156 | 6.1 | 16.5 | 0.00 | 0.00 | 0.00 | 58 | 1005.6 |
| 20260504232936 | 75 | 184 | 14.8 | 10.4 | 0.00 | 0.00 | 0.00 | 58 | 1005.5 |
| 20260504232442 | 75 | 150 | 4.3 | 10.4 | 0.00 | 0.00 | 0.00 | 59 | 1005.5 |
| 20260504231940 | 75 | 160 | 5.2 | 9.6 | 0.00 | 0.00 | 0.00 | 58 | 1005.6 |
| 20260504231445 | 75 | 145 | 2.6 | 8.7 | 0.00 | 0.00 | 0.00 | 57 | 1005.5 |
| 20260504230942 | 75 | 142 | 3.5 | 8.7 | 0.00 | 0.00 | 0.00 | 58 | 1005.5 |
| 20260504230437 | 75 | 126 | 2.6 | 9.6 | 0.00 | 0.00 | 0.00 | 57 | 1005.5 |
| 20260504230015 | 75 | 138 | 6.1 | 9.6 | 0.00 | 0.00 | 0.00 | 56 | 1005.4 |
| 20260504225541 | 76 | 134 | 7.0 | 9.6 | 0.00 | 0.00 | 0.00 | 56 | 1005.4 |
| 20260504225040 | 76 | 142 | 4.3 | 10.4 | 0.00 | 0.00 | 0.00 | 56 | 1005.6 |
| 20260504224540 | 76 | 167 | 4.3 | 13.0 | 0.00 | 0.00 | 0.00 | 55 | 1005.6 |
| 20260504224044 | 76 | 177 | 8.7 | 13.9 | 0.00 | 0.00 | 0.00 | 55 | 1005.5 |
| 20260504223541 | 76 | 159 | 5.2 | 13.9 | 0.00 | 0.00 | 0.00 | 53 | 1005.6 |
| 20260504223037 | 76 | 174 | 7.0 | 11.3 | 0.00 | 0.00 | 0.00 | 53 | 1005.7 |
| 20260504222537 | 77 | 156 | 6.1 | 11.3 | 0.00 | 0.00 | 0.00 | 53 | 1005.7 |
| 20260504222040 | 77 | 179 | 5.2 | 11.3 | 0.00 | 0.00 | 0.00 | 54 | 1005.7 |
| 20260504221539 | 77 | 204 | 6.1 | 13.0 | 0.00 | 0.00 | 0.00 | 52 | 1005.7 |
| 20260504221037 | 77 | 174 | 8.7 | 13.0 | 0.00 | 0.00 | 0.00 | 54 | 1005.8 |
| 20260504220542 | 77 | 186 | 7.0 | 12.2 | 0.00 | 0.00 | 0.00 | 53 | 1005.9 |
| 20260504220043 | 77 | 138 | 6.1 | 12.2 | 0.00 | 0.00 | 0.00 | 52 | 1006.0 |
| 20260504215536 | 77 | 177 | 9.6 | 12.2 | 0.00 | 0.00 | 0.00 | 53 | 1006.0 |
| 20260504215039 | 78 | 195 | 5.2 | 12.2 | 0.00 | 0.00 | 0.00 | 53 | 1005.8 |
| 20260504214538 | 78 | 156 | 9.6 | 14.8 | 0.00 | 0.00 | 0.00 | 54 | 1005.8 |
| 20260504214039 | 78 | 148 | 7.0 | 14.8 | 0.00 | 0.00 | 0.00 | 51 | 1005.9 |
| 20260504213541 | 78 | 145 | 7.8 | 14.8 | 0.00 | 0.00 | 0.00 | 53 | 1006.2 |
| 20260504213142 | 78 | 180 | 8.7 | 10.4 | 0.00 | 0.00 | 0.00 | 51 | 1006.2 |
| 20260504212642 | 78 | 205 | 5.2 | 13.0 | 0.00 | 0.00 | 0.00 | 51 | 1006.2 |
| 20260504212129 | 78 | 171 | 7.0 | 13.9 | 0.00 | 0.00 | 0.00 | 51 | 1006.3 |
| 20260504211641 | 79 | 200 | 6.1 | 13.9 | 0.00 | 0.00 | 0.00 | 50 | 1006.4 |
| 20260504211138 | 79 | 183 | 10.4 | 13.9 | 0.00 | 0.00 | 0.00 | 49 | 1006.6 |
| 20260504210640 | 79 | 186 | 7.0 | 13.9 | 0.00 | 0.00 | 0.00 | 49 | 1006.6 |
| 20260504210141 | 79 | 209 | 6.1 | 13.0 | 0.00 | 0.00 | 0.00 | 54 | 1006.7 |
| 20260504205638 | 80 | 230 | 9.6 | 12.2 | 0.00 | 0.00 | 0.00 | 49 | 1006.7 |
| 20260504205142 | 79 | 189 | 1.7 | 13.9 | 0.00 | 0.00 | 0.00 | 52 | 1006.7 |
| 20260504204644 | 79 | 163 | 6.1 | 13.9 | 0.00 | 0.00 | 0.00 | 50 | 1006.9 |
| 20260504204140 | 79 | 184 | 7.0 | 12.2 | 0.00 | 0.00 | 0.00 | 52 | 1007.0 |
| 20260504203640 | 79 | 167 | 7.8 | 13.0 | 0.00 | 0.00 | 0.00 | 50 | 1007.0 |
| 20260504203138 | 79 | 205 | 10.4 | 13.9 | 0.00 | 0.00 | 0.00 | 49 | 1007.1 |
| 20260504202644 | 79 | 182 | 9.6 | 14.8 | 0.00 | 0.00 | 0.00 | 49 | 1007.3 |
| 20260504202138 | 79 | 187 | 8.7 | 14.8 | 0.00 | 0.00 | 0.00 | 51 | 1007.3 |
| 20260504201640 | 79 | 198 | 7.0 | 13.9 | 0.00 | 0.00 | 0.00 | 49 | 1007.3 |
| 20260504201138 | 79 | 238 | 9.6 | 14.8 | 0.00 | 0.00 | 0.00 | 49 | 1007.6 |
| 20260504200642 | 79 | 196 | 5.2 | 14.8 | 0.00 | 0.00 | 0.00 | 50 | 1007.6 |
| 20260504200137 | 79 | 184 | 2.6 | 13.0 | 0.00 | 0.00 | 0.00 | 48 | 1007.6 |
| 20260504195636 | 79 | 212 | 12.2 | 13.0 | 0.00 | 0.00 | 0.00 | 49 | 1007.8 |
| 20260504195138 | 79 | 200 | 8.7 | 17.4 | 0.00 | 0.00 | 0.00 | 49 | 1008.0 |
| 20260504194643 | 79 | 225 | 7.0 | 17.4 | 0.00 | 0.00 | 0.00 | 48 | 1008.0 |
| 20260504194138 | 78 | 225 | 9.6 | 18.2 | 0.00 | 0.00 | 0.00 | 52 | 1008.0 |
| 20260504193641 | 78 | 215 | 13.0 | 18.2 | 0.00 | 0.00 | 0.00 | 50 | 1008.1 |
| 20260504193136 | 78 | 189 | 6.1 | 14.8 | 0.00 | 0.00 | 0.00 | 49 | 1008.2 |
| 20260504192641 | 78 | 200 | 7.0 | 14.8 | 0.00 | 0.00 | 0.00 | 50 | 1008.2 |
| 20260504192140 | 78 | 201 | 9.6 | 16.5 | 0.00 | 0.00 | 0.00 | 48 | 1008.4 |
| 20260504191639 | 78 | 182 | 9.6 | 19.1 | 0.00 | 0.00 | 0.00 | 50 | 1008.5 |
| 20260504191141 | 78 | 209 | 13.9 | 19.1 | 0.00 | 0.00 | 0.00 | 50 | 1008.5 |
| 20260504190644 | 78 | 205 | 11.3 | 16.5 | 0.00 | 0.00 | 0.00 | 49 | 1008.5 |
| 20260504190139 | 78 | 229 | 10.4 | 15.6 | 0.00 | 0.00 | 0.00 | 49 | 1008.7 |
| 20260504185641 | 78 | 200 | 8.7 | 15.6 | 0.00 | 0.00 | 0.00 | 50 | 1008.6 |
| 20260504185142 | 78 | 206 | 6.1 | 15.6 | 0.00 | 0.00 | 0.00 | 50 | 1008.8 |
| 20260504184636 | 77 | 233 | 6.1 | 16.5 | 0.00 | 0.00 | 0.00 | 53 | 1008.8 |
| 20260504184138 | 77 | 244 | 10.4 | 16.5 | 0.00 | 0.00 | 0.00 | 50 | 1008.8 |
| 20260504183639 | 77 | 255 | 9.6 | 15.6 | 0.00 | 0.00 | 0.00 | 49 | 1008.8 |
| 20260504183139 | 77 | 233 | 7.0 | 15.6 | 0.00 | 0.00 | 0.00 | 50 | 1009.1 |
| 20260504182637 | 76 | 201 | 3.5 | 16.5 | 0.00 | 0.00 | 0.00 | 51 | 1009.0 |
| 20260504182138 | 76 | 215 | 9.6 | 16.5 | 0.00 | 0.00 | 0.00 | 51 | 1009.1 |
| 20260504181643 | 76 | 193 | 8.7 | 17.4 | 0.00 | 0.00 | 0.00 | 49 | 1009.3 |
| 20260504181139 | 76 | 163 | 11.3 | 17.4 | 0.00 | 0.00 | 0.00 | 49 | 1009.4 |
| 20260504180638 | 76 | 204 | 12.2 | 18.2 | 0.00 | 0.00 | 0.00 | 50 | 1009.4 |
| 20260504180140 | 76 | 185 | 10.4 | 18.2 | 0.00 | 0.00 | 0.00 | 50 | 1009.6 |
| 20260504175639 | 76 | 185 | 10.4 | 14.8 | 0.00 | 0.00 | 0.00 | 49 | 1009.6 |
| 20260504175142 | 76 | 201 | 7.0 | 15.6 | 0.00 | 0.00 | 0.00 | 50 | 1009.6 |
| 20260504174640 | 76 | 196 | 7.0 | 15.6 | 0.00 | 0.00 | 0.00 | 49 | 1009.6 |
| 20260504174141 | 76 | 240 | 8.7 | 15.6 | 0.00 | 0.00 | 0.00 | 51 | 1009.7 |
| 20260504173639 | 76 | 196 | 9.6 | 15.6 | 0.00 | 0.00 | 0.00 | 50 | 1009.8 |
| 20260504173136 | 76 | 182 | 8.7 | 16.5 | 0.00 | 0.00 | 0.00 | 52 | 1009.8 |
| 20260504172627 | 76 | 219 | 9.6 | 20.9 | 0.00 | 0.00 | 0.00 | 52 | 1009.9 |
| 20260504172129 | 76 | 183 | 8.7 | 20.9 | 0.00 | 0.00 | 0.00 | 50 | 1009.9 |
| 20260504171631 | 76 | 143 | 5.2 | 16.5 | 0.00 | 0.00 | 0.00 | 54 | 1010.0 |
| 20260504171126 | 75 | 240 | 10.4 | 16.5 | 0.00 | 0.00 | 0.00 | 52 | 1009.9 |
| 20260504170625 | 75 | 181 | 5.2 | 18.2 | 0.00 | 0.00 | 0.00 | 53 | 1010.1 |